When you browse on this site, cookies collect data to enhance your experience and personalize the content and advertising you see.
Visit our Privacy Policy to learn more. By continuing to use the site, you agree to this use of cookies and data.
  • în România
  • Lista ţărilor
  • Pe 7 zile
  • Temperatura apei
  • Meteo pe hartă
  • Widget-uri
  • user-avatar
    Intrare

    Meteo pe oră la Hanoi

    Astăzi, 23 Ianuarie, Joi

    Timp Temperatura Precipitaţii Vânt Presiune Umiditate
    00:00 +24°C° 0 mm 3 m/s 760 mmHg 85%
    01:00 +22°C° 0 mm 3 m/s 760 mmHg 86%
    02:00 +22°C° 0 mm 3 m/s 759 mmHg 87%
    03:00 +22°C° 0 mm 3 m/s 759 mmHg 88%
    04:00 +23°C° 0 mm 2 m/s 759 mmHg 90%
    05:00 +23°C° 0 mm 2 m/s 759 mmHg 90%
    06:00 +23°C° 0 mm 2 m/s 759 mmHg 89%
    07:00 +23°C° 0 mm 2 m/s 760 mmHg 88%
    08:00 +24°C° 0 mm 3 m/s 760 mmHg 84%
    09:00 +25°C° 0 mm 3 m/s 761 mmHg 79%
    10:00 +25°C° 0 mm 4 m/s 761 mmHg 74%
    11:00 +25°C° 0 mm 4 m/s 760 mmHg 73%
    12:00 +26°C° 0 mm 4 m/s 759 mmHg 72%
    13:00 +26°C° 0 mm 4 m/s 759 mmHg 74%
    14:00 +26°C° 0 mm 4 m/s 758 mmHg 73%
    15:00 +26°C° 0 mm 4 m/s 758 mmHg 73%
    16:00 +26°C° 0 mm 4 m/s 757 mmHg 72%
    17:00 +26°C° 0 mm 4 m/s 758 mmHg 74%
    18:00 +25°C° 0 mm 4 m/s 758 mmHg 76%
    19:00 +25°C° 0 mm 3 m/s 759 mmHg 80%
    20:00 +25°C° 0 mm 3 m/s 759 mmHg 81%
    21:00 +25°C° 0 mm 3 m/s 760 mmHg 81%
    22:00 +24°C° 0 mm 3 m/s 760 mmHg 82%
    23:00 +24°C° 0 mm 3 m/s 760 mmHg 82%

    Mâine, 24 Ianuarie, Vineri

    Timp Temperatura Precipitaţii Vânt Presiune Umiditate
    00:00 +24°C° 0 mm 3 m/s 760 mmHg 83%
    01:00 +24°C° 0 mm 3 m/s 759 mmHg 83%
    02:00 +24°C° 0 mm 3 m/s 759 mmHg 84%
    03:00 +24°C° 0 mm 2 m/s 759 mmHg 85%
    04:00 +24°C° 0 mm 2 m/s 759 mmHg 87%
    05:00 +24°C° 0 mm 2 m/s 759 mmHg 87%
    06:00 +24°C° 0 mm 2 m/s 760 mmHg 88%
    07:00 +24°C° 0 mm 2 m/s 760 mmHg 89%
    08:00 +24°C° 0.1 mm 3 m/s 760 mmHg 86%
    09:00 +25°C° 0.1 mm 3 m/s 761 mmHg 84%
    10:00 +25°C° 0.1 mm 4 m/s 761 mmHg 82%
    11:00 +25°C° 0.1 mm 4 m/s 760 mmHg 82%
    12:00 +25°C° 0.1 mm 4 m/s 760 mmHg 81%
    13:00 +25°C° 0.1 mm 4 m/s 759 mmHg 81%
    14:00 +25°C° 0.3 mm 4 m/s 759 mmHg 82%
    15:00 +25°C° 0.3 mm 4 m/s 758 mmHg 83%
    16:00 +23°C° 0.3 mm 5 m/s 758 mmHg 84%
    17:00 +23°C° 1 mm 4 m/s 758 mmHg 85%
    18:00 +23°C° 1 mm 4 m/s 758 mmHg 86%
    19:00 +22°C° 1 mm 4 m/s 759 mmHg 87%
    20:00 +22°C° 0.8 mm 4 m/s 759 mmHg 87%
    21:00 +22°C° 0.8 mm 3 m/s 759 mmHg 87%
    22:00 +22°C° 0.8 mm 3 m/s 759 mmHg 88%
    23:00 +22°C° 0.5 mm 3 m/s 759 mmHg 88%

    Poimâine, 25 Ianuarie, Sâmbătă

    Timp Temperatura Precipitaţii Vânt Presiune Umiditate
    00:00 +22°C° 0.5 mm 3 m/s 759 mmHg 89%
    01:00 +22°C° 0.5 mm 3 m/s 758 mmHg 89%
    02:00 +22°C° 0.6 mm 4 m/s 758 mmHg 90%
    03:00 +22°C° 0.6 mm 4 m/s 758 mmHg 90%
    04:00 +22°C° 0.6 mm 5 m/s 758 mmHg 91%
    05:00 +21°C° 0.6 mm 4 m/s 758 mmHg 91%
    06:00 +21°C° 0.6 mm 4 m/s 758 mmHg 90%
    07:00 +21°C° 0.6 mm 3 m/s 759 mmHg 90%
    08:00 +22°C° 0.2 mm 4 m/s 759 mmHg 86%
    09:00 +23°C° 0.2 mm 4 m/s 759 mmHg 82%
    10:00 +23°C° 0.2 mm 5 m/s 759 mmHg 78%
    11:00 +25°C° 0.4 mm 5 m/s 759 mmHg 76%
    12:00 +25°C° 0.4 mm 5 m/s 758 mmHg 75%
    13:00 +26°C° 0.4 mm 5 m/s 757 mmHg 73%
    14:00 +26°C° 0.2 mm 5 m/s 756 mmHg 71%
    15:00 +27°C° 0.2 mm 5 m/s 756 mmHg 69%
    16:00 +27°C° 0.2 mm 6 m/s 755 mmHg 66%
    17:00 +26°C° 0.1 mm 5 m/s 756 mmHg 71%
    18:00 +25°C° 0.1 mm 4 m/s 756 mmHg 76%
    19:00 +23°C° 0.1 mm 4 m/s 757 mmHg 80%
    20:00 +21°C° 1.4 mm 5 m/s 758 mmHg 81%
    21:00 +20°C° 1.4 mm 7 m/s 758 mmHg 83%
    22:00 +17°C° 1.4 mm 8 m/s 759 mmHg 84%
    23:00 +17°C° 0.6 mm 8 m/s 759 mmHg 82%

    26 Ianuarie, Duminică

    Timp Temperatura Precipitaţii Vânt Presiune Umiditate
    00:00 +16°C° 0.6 mm 7 m/s 759 mmHg 80%
    01:00 +16°C° 0.6 mm 7 m/s 759 mmHg 78%
    02:00 +16°C° 0.2 mm 6 m/s 759 mmHg 76%
    03:00 +16°C° 0.2 mm 6 m/s 759 mmHg 75%
    04:00 +16°C° 0.2 mm 6 m/s 759 mmHg 74%
    05:00 +16°C° 0 mm 5 m/s 760 mmHg 72%
    06:00 +16°C° 0 mm 5 m/s 760 mmHg 71%
    07:00 +16°C° 0 mm 5 m/s 761 mmHg 70%
    08:00 +16°C° 0 mm 5 m/s 761 mmHg 67%
    09:00 +17°C° 0 mm 5 m/s 762 mmHg 63%
    10:00 +17°C° 0 mm 5 m/s 762 mmHg 60%
    11:00 +17°C° 0 mm 5 m/s 761 mmHg 59%
    12:00 +19°C° 0 mm 4 m/s 761 mmHg 58%
    13:00 +19°C° 0 mm 4 m/s 760 mmHg 57%
    14:00 +19°C° 0 mm 3 m/s 760 mmHg 57%
    15:00 +20°C° 0 mm 3 m/s 759 mmHg 58%
    16:00 +20°C° 0 mm 2 m/s 759 mmHg 59%
    17:00 +19°C° 0 mm 2 m/s 759 mmHg 61%
    18:00 +19°C° 0 mm 3 m/s 760 mmHg 64%
    19:00 +19°C° 0 mm 3 m/s 760 mmHg 66%
    20:00 +18°C° 0 mm 3 m/s 760 mmHg 68%
    21:00 +18°C° 0 mm 2 m/s 761 mmHg 69%
    22:00 +18°C° 0 mm 2 m/s 761 mmHg 70%
    23:00 +18°C° 0 mm 2 m/s 761 mmHg 72%

    27 Ianuarie, Luni

    Timp Temperatura Precipitaţii Vânt Presiune Umiditate
    00:00 +18°C° 0 mm 2 m/s 760 mmHg 73%
    01:00 +17°C° 0 mm 2 m/s 760 mmHg 74%
    02:00 +17°C° 0 mm 2 m/s 760 mmHg 74%
    03:00 +17°C° 0 mm 2 m/s 759 mmHg 73%
    04:00 +17°C° 0 mm 3 m/s 759 mmHg 73%
    05:00 +17°C° 0.3 mm 3 m/s 760 mmHg 74%
    06:00 +16°C° 0.3 mm 3 m/s 760 mmHg 75%
    07:00 +16°C° 0.3 mm 3 m/s 760 mmHg 76%
    08:00 +16°C° 0 mm 3 m/s 760 mmHg 75%
    09:00 +17°C° 0 mm 3 m/s 761 mmHg 74%
    10:00 +17°C° 0 mm 3 m/s 761 mmHg 73%
    11:00 +17°C° 0 mm 3 m/s 760 mmHg 72%
    12:00 +17°C° 0 mm 3 m/s 760 mmHg 70%
    13:00 +18°C° 0 mm 3 m/s 759 mmHg 69%
    14:00 +18°C° 0 mm 2 m/s 758 mmHg 69%
    15:00 +18°C° 0 mm 2 m/s 758 mmHg 69%
    16:00 +19°C° 0 mm 1 m/s 758 mmHg 68%
    17:00 +19°C° 0.2 mm 1 m/s 758 mmHg 72%
    18:00 +17°C° 0.2 mm 2 m/s 759 mmHg 75%
    19:00 +17°C° 0.2 mm 2 m/s 759 mmHg 78%
    20:00 +17°C° 0.4 mm 2 m/s 759 mmHg 80%
    21:00 +17°C° 0.4 mm 2 m/s 760 mmHg 82%
    22:00 +16°C° 0.4 mm 2 m/s 760 mmHg 85%
    23:00 +16°C° 0.1 mm 2 m/s 760 mmHg 84%

    28 Ianuarie, Marţi

    Timp Temperatura Precipitaţii Vânt Presiune Umiditate
    00:00 +16°C° 0.1 mm 2 m/s 760 mmHg 84%
    01:00 +16°C° 0.1 mm 2 m/s 760 mmHg 84%
    02:00 +16°C° 0 mm 2 m/s 759 mmHg 84%
    03:00 +16°C° 0 mm 2 m/s 759 mmHg 83%
    04:00 +16°C° 0 mm 2 m/s 759 mmHg 82%
    05:00 +16°C° 0 mm 2 m/s 759 mmHg 81%
    06:00 +16°C° 0 mm 2 m/s 760 mmHg 81%
    07:00 +16°C° 0 mm 2 m/s 760 mmHg 80%
    08:00 +16°C° 0.1 mm 2 m/s 761 mmHg 78%
    09:00 +17°C° 0.1 mm 2 m/s 761 mmHg 76%
    10:00 +17°C° 0.1 mm 2 m/s 762 mmHg 74%
    11:00 +18°C° 0 mm 2 m/s 761 mmHg 72%
    12:00 +18°C° 0 mm 2 m/s 760 mmHg 70%
    13:00 +19°C° 0 mm 3 m/s 760 mmHg 69%
    14:00 +19°C° 0 mm 3 m/s 760 mmHg 70%
    15:00 +19°C° 0 mm 3 m/s 760 mmHg 70%
    16:00 +19°C° 0 mm 3 m/s 759 mmHg 71%
    17:00 +18°C° 0 mm 3 m/s 760 mmHg 73%
    18:00 +18°C° 0 mm 3 m/s 760 mmHg 74%
    19:00 +18°C° 0 mm 3 m/s 761 mmHg 76%
    20:00 +17°C° 0.5 mm 3 m/s 761 mmHg 79%
    21:00 +17°C° 0.5 mm 3 m/s 761 mmHg 82%
    22:00 +16°C° 0.5 mm 3 m/s 762 mmHg 85%
    23:00 +16°C° 0.7 mm 3 m/s 762 mmHg 86%
    Arată mai mult